sat.trackr.live / text

‹ back to catalog

STARLINK-3071

NORAD 49147 · 2021-082T

PAYLOAD ACTIVE UNKNOWN

§ Identity

Operator
Country
US
Launch date
2021-09-14
Launch site
AFWTR
Launch vehicle
Mass (kg)
RCS (m²)

Purposes: comms

External: N2YO · Heavens-Above · Gunter

§ Orbital elements

Epoch: 2026-05-25T04:05:16.315008Z

Period
96.11 min
Inclination
70.0004°
Eccentricity
0.0002866
Mean motion
14.98356474 rev/d
Perigee alt
570.0 km
Apogee alt
574.0 km
Semi-major
6,950.1 km
B*
2.3524e-4
RAAN
61.6258°
Arg perigee
267.1053°
Mean anomaly
92.9778°
Rev number
25,842

§ Raw data

STARLINK-30711 49147U 21082T   26145.17032772  .00002717  00000+0  23524-3 0  99902 49147  70.0004  61.6258 0002866 267.1053  92.9778 14.98356474258426

JSON: /api/v1/satellites/49147 · /tle

For live sub-satellite position, see the globe view (requires WebGL).

§ Visibility from observer

Set your observer location to see the next 7 days of passes ≥ 10°. The values pass through the URL so the page stays shareable.

No JS? Fill the form by hand. The geolocation button needs JavaScript.